JE9BHE-13 Weather Reports


time (UTC)temp
C
wind
direction
speed
KPH
gust
KPH
rain 1hr
cm
rain 24hr
cm
rain mn
cm
humidity
%
barometer
mb
20260504160308 8 79 4.8 6.4 0.00 1.02 0.00 93 1019.7
20260504150906 9 87 1.6 3.2 0.00 1.04 0.00 95 1019.8
20260504150607 9 85 3.2 3.2 0.00 1.04 0.00 95 1020.1
20260504150307 9 87 1.6 3.2 0.00 1.09 0.00 95 1019.7
20260504140906 10 140 0.0 3.2 0.00 1.09 1.09 94 1019.4
20260504140606 10 139 1.6 3.2 0.00 1.09 1.09 93 1019.6
20260504140306 10 157 1.6 3.2 0.00 1.09 1.09 93 1019.5
20260504130607 10 103 0.0 3.2 0.00 1.17 1.09 94 1019.2
20260504130307 10 97 0.0 3.2 0.00 1.19 1.09 94 1019.1
20260504120306 11 68 0.0 3.2 0.03 1.27 1.09 95 1018.6
20260504110606 11 237 1.6 3.2 0.10 1.32 1.09 94 1016.8
20260504110306 11 332 0.0 3.2 0.05 1.30 1.04 94 1017.1
20260504100606 11 207 0.0 3.2 0.03 1.35 0.99 91 1015.5
20260504100305 11 217 0.0 3.2 0.03 1.35 0.99 92 1015.4
20260504081806 12 163 3.2 6.4 0.13 1.19 0.81 91 1012.6
20260504081506 12 186 3.2 6.4 0.13 1.19 0.81 91 1012.4
20260504081206 12 191 0.0 6.4 0.15 1.19 0.81 92 1012.6
20260504080906 12 185 1.6 6.4 0.15 1.19 0.81 91 1012.6
20260504080606 12 200 3.2 6.4 0.15 1.22 0.81 91 1012.6
20260504080306 12 211 1.6 3.2 0.15 1.22 0.81 91 1012.4
20260504070306 13 130 9.7 20.9 0.18 1.17 0.66 87 1011.2
20260504050306 16 135 8.0 24.1 0.00 0.99 0.48 70 1008.2
20260504050006 16 146 11.3 24.1 0.00 0.99 0.48 72 1008.1
20260504045706 16 145 9.7 24.1 0.00 0.99 0.48 71 1008.2
20260504045405 16 141 6.4 27.4 0.00 0.99 0.48 69 1008.1
20260504045105 16 135 8.0 27.4 0.00 0.99 0.48 70 1008.1
20260504044505 16 143 11.3 24.1 0.00 0.99 0.48 66 1008.0
20260504044206 16 145 16.1 32.2 0.00 0.99 0.48 66 1007.8
20260504043906 17 150 11.3 32.2 0.00 0.99 0.48 67 1007.8
20260504043606 17 155 9.7 32.2 0.00 0.99 0.48 69 1007.7
20260504043305 17 147 19.3 32.2 0.00 0.99 0.48 67 1007.8
20260504043006 17 152 14.5 25.7 0.00 0.99 0.48 67 1007.6
20260504042706 17 137 11.3 32.2 0.00 0.99 0.48 66 1007.3
20260504042405 18 135 12.9 35.4 0.00 0.99 0.48 69 1007.7
20260504042106 18 139 19.3 37.0 0.00 0.99 0.48 68 1007.5
20260504041806 18 148 16.1 37.0 0.00 0.99 0.48 66 1007.5
20260504041506 18 146 19.3 37.0 0.00 0.99 0.48 68 1007.4
20260504040605 18 157 14.5 27.4 0.00 0.99 0.48 67 1007.1
20260504040305 17 155 11.3 32.2 0.00 0.99 0.48 71 1007.2
20260504040006 17 152 12.9 35.4 0.00 0.99 0.48 68 1007.2
20260504035706 17 145 17.7 35.4 0.00 0.99 0.48 68 1007.0
20260504035405 17 153 20.9 35.4 0.00 0.99 0.48 68 1006.6
20260504035106 17 153 22.5 35.4 0.00 0.99 0.48 67 1006.8
20260504034806 17 162 17.7 33.8 0.00 0.99 0.48 70 1006.9
20260504034206 17 157 17.7 38.6 0.00 0.99 0.48 69 1006.6
20260504033606 17 155 24.1 38.6 0.00 0.99 0.48 69 1006.4
20260504033006 17 153 22.5 33.8 0.00 0.99 0.48 69 1006.5
20260504032706 17 158 19.3 37.0 0.00 0.99 0.48 70 1006.6
20260504032406 17 156 22.5 37.0 0.00 0.99 0.48 68 1006.4
20260504032106 17 166 19.3 37.0 0.00 0.99 0.48 69 1006.2
20260504031506 18 158 17.7 29.0 0.00 0.99 0.48 71 1006.0
20260504031207 17 152 16.1 29.0 0.00 0.99 0.48 70 1006.2
20260504030906 17 152 17.7 27.4 0.00 0.99 0.48 71 1006.2
20260504030606 17 158 14.5 33.8 0.00 0.99 0.48 73 1006.2
20260504030305 17 157 9.7 33.8 0.00 0.99 0.48 73 1006.0
20260504025706 18 155 20.9 33.8 0.00 0.99 0.48 71 1006.1
20260504025406 18 157 17.7 35.4 0.00 0.99 0.48 70 1006.1
20260504025106 18 156 20.9 35.4 0.00 0.99 0.48 69 1006.1
20260504024806 18 159 17.7 35.4 0.00 0.99 0.48 72 1005.9
20260504024506 18 148 25.7 35.4 0.00 0.99 0.48 69 1006.0
20260504024207 18 140 20.9 32.2 0.00 0.99 0.48 71 1006.0
20260504023905 17 137 12.9 29.0 0.00 0.99 0.48 75 1005.9
20260504023605 17 147 12.9 38.6 0.00 0.99 0.48 74 1005.8
20260504023307 17 157 12.9 38.6 0.00 0.99 0.48 76 1005.9
20260504023006 17 159 14.5 38.6 0.00 0.99 0.48 76 1005.6
20260504022406 17 147 17.7 32.2 0.00 0.99 0.48 78 1005.7
20260504022106 17 147 20.9 32.2 0.00 0.99 0.48 79 1005.9
20260504021806 16 150 17.7 29.0 0.00 0.99 0.48 80 1005.9
20260504021506 16 157 16.1 24.1 0.00 0.99 0.48 81 1005.7
20260504021206 16 167 16.1 24.1 0.00 0.99 0.48 83 1006.0
20260504020906 16 173 12.9 27.4 0.00 0.99 0.48 85 1005.7
20260504020605 16 176 17.7 35.4 0.00 0.99 0.48 86 1005.8
20260504020305 16 188 14.5 35.4 0.00 0.99 0.48 86 1005.9
20260504020006 16 196 16.1 35.4 0.00 0.99 0.48 87 1005.7
20260504015706 16 204 9.7 24.1 0.00 0.99 0.48 87 1006.0
20260504015406 16 196 9.7 24.1 0.00 0.99 0.48 87 1005.8
20260504015106 17 185 9.7 25.7 0.00 0.99 0.48 85 1005.8
20260504014806 17 178 12.9 25.7 0.00 0.99 0.48 84 1005.9
20260504014506 17 170 12.9 25.7 0.00 0.99 0.48 83 1005.6
20260504014207 17 163 9.7 25.7 0.00 0.99 0.48 83 1005.5
20260504013906 17 163 9.7 25.7 0.00 0.99 0.48 83 1005.5
20260504013306 17 173 12.9 25.7 0.00 0.99 0.48 81 1005.3
20260504013006 17 183 14.5 22.5 0.00 0.99 0.48 81 1005.5
20260504012706 17 183 11.3 22.5 0.00 0.99 0.48 81 1005.6
20260504012405 17 179 12.9 24.1 0.00 0.99 0.48 81 1005.6
20260504012107 17 175 14.5 24.1 0.00 0.99 0.48 81 1005.5
20260504011806 17 176 12.9 25.7 0.00 0.99 0.48 81 1005.5
20260504011506 17 183 14.5 25.7 0.00 0.99 0.48 80 1005.4
20260504011206 17 184 14.5 25.7 0.00 0.99 0.48 81 1005.4
20260504010906 17 192 16.1 25.7 0.00 0.99 0.48 80 1005.6
20260504010606 18 185 11.3 25.7 0.00 0.99 0.48 82 1005.4
20260504005706 17 176 14.5 20.9 0.00 0.99 0.48 80 1005.2
20260504005406 17 181 11.3 17.7 0.00 0.99 0.48 81 1005.3
20260504004806 17 169 12.9 22.5 0.00 0.99 0.48 82 1005.1
20260504004506 17 172 12.9 24.1 0.00 0.99 0.48 82 1005.1
20260504004205 17 176 16.1 24.1 0.00 0.99 0.48 81 1004.9
20260504003905 17 172 12.9 25.7 0.00 0.99 0.48 82 1005.2
20260504003607 17 174 16.1 25.7 0.00 0.99 0.48 81 1005.0
20260504003306 17 171 12.9 25.7 0.00 0.99 0.48 84 1005.0
20260504003006 17 171 16.1 25.7 0.00 0.99 0.48 83 1005.1
20260504002705 17 168 14.5 24.1 0.00 0.99 0.48 83 1005.1
20260504002405 17 162 12.9 24.1 0.00 0.99 0.48 83 1005.2
20260504002106 17 163 12.9 20.9 0.00 0.99 0.48 83 1005.1
20260504001806 17 177 12.9 20.9 0.00 0.99 0.48 83 1005.2
20260504001506 17 175 14.5 20.9 0.00 0.99 0.48 83 1004.9
20260504001206 17 174 9.7 20.9 0.00 0.99 0.48 84 1005.0
20260504000905 17 170 12.9 20.9 0.00 0.99 0.48 82 1005.1
20260504000605 18 173 12.9 20.9 0.00 0.99 0.48 82 1005.1
20260504000305 18 176 9.7 20.9 0.00 0.99 0.48 82 1005.0
20260504000006 18 179 11.3 20.9 0.00 0.99 0.48 81 1005.0
20260503235706 18 173 12.9 17.7 0.00 0.99 0.48 81 1005.0
20260503235405 18 170 9.7 17.7 0.00 0.99 0.48 82 1005.2
20260503235106 18 166 8.0 12.9 0.00 0.99 0.48 82 1005.0
20260503234808 19 171 6.4 12.9 0.00 0.99 0.48 79 1004.6
20260503234507 19 169 6.4 12.9 0.00 0.99 0.48 80 1004.8
20260503234207 18 169 8.0 12.9 0.00 0.99 0.48 82 1004.8
20260503233908 18 160 6.4 11.3 0.00 0.99 0.48 82 1004.9
20260503233607 19 141 6.4 11.3 0.00 0.99 0.48 81 1004.9
20260503233308 19 147 3.2 6.4 0.00 0.99 0.48 82 1004.8
20260503233007 19 153 3.2 6.4 0.00 0.99 0.48 83 1004.8
20260503232707 18 217 0.0 6.4 0.00 0.99 0.48 84 1004.7
20260503232407 18 212 3.2 6.4 0.00 0.99 0.48 86 1004.8
20260503232107 17 253 0.0 3.2 0.00 0.99 0.48 88 1004.8
20260503231807 17 240 0.0 3.2 0.00 0.99 0.48 88 1004.6
20260503231508 17 244 0.0 3.2 0.00 0.99 0.48 88 1004.6
20260503231207 17 246 1.6 3.2 0.00 0.99 0.48 88 1004.9
20260503230907 17 252 1.6 3.2 0.00 0.99 0.48 88 1005.0
20260503230607 18 235 0.0 3.2 0.00 0.99 0.48 88 1004.8
20260503230307 18 212 0.0 3.2 0.00 0.99 0.48 87 1004.9
20260503230008 17 212 0.0 3.2 0.00 0.99 0.48 87 1004.9
20260503225707 17 181 0.0 3.2 0.00 0.99 0.48 86 1004.6
20260503225407 17 337 0.0 3.2 0.00 0.99 0.48 86 1004.7
20260503225107 17 337 0.0 3.2 0.00 0.99 0.48 86 1004.7
20260503224807 17 337 0.0 3.2 0.00 0.99 0.48 86 1004.8
20260503224507 17 337 0.0 3.2 0.00 0.99 0.48 86 1004.8
20260503224207 17 46 0.0 3.2 0.00 0.99 0.48 86 1005.0
20260503223907 17 46 0.0 3.2 0.00 0.99 0.48 85 1004.8
20260503223007 17 26 0.0 3.2 0.00 0.99 0.48 87 1004.8
20260503222708 17 25 0.0 3.2 0.00 0.99 0.48 89 1005.0
20260503222407 17 1 0.0 3.2 0.00 0.99 0.48 90 1004.7
20260503222108 17 0 0.0 0.0 0.00 0.99 0.48 91 1004.9
20260503221808 17 314 0.0 3.2 0.00 0.99 0.48 92 1004.5
20260503221207 16 19 0.0 3.2 0.00 0.99 0.48 94 1004.5
20260503220607 16 46 0.0 3.2 0.00 0.99 0.48 94 1004.8
20260503220307 16 37 0.0 3.2 0.00 0.99 0.48 94 1004.6
20260503220007 16 36 0.0 3.2 0.00 0.99 0.48 95 1004.5
20260503215407 16 22 1.6 3.2 0.00 0.99 0.48 95 1005.0
20260503215107 16 23 0.0 3.2 0.00 0.99 0.48 95 1004.7
20260503214808 15 23 0.0 3.2 0.00 0.99 0.48 95 1005.0
20260503214507 15 1 0.0 3.2 0.00 0.99 0.48 95 1005.0
20260503214207 15 1 0.0 3.2 0.00 0.99 0.48 95 1004.9
20260503213907 15 1 0.0 3.2 0.00 0.99 0.48 95 1005.0
20260503213609 15 0 0.0 0.0 0.00 0.99 0.48 95 1004.9
20260503213307 15 1 0.0 3.2 0.00 0.99 0.48 95 1005.0
20260503213007 15 1 0.0 3.2 0.00 0.99 0.48 95 1005.1
20260503212707 15 1 0.0 3.2 0.00 0.99 0.48 95 1004.9
20260503212407 15 342 0.0 3.2 0.00 0.99 0.48 95 1004.9
20260503212107 15 339 0.0 3.2 0.00 0.99 0.48 95 1004.5
20260503211806 15 325 0.0 6.4 0.00 0.99 0.48 95 1004.8
20260503211506 15 317 0.0 6.4 0.00 0.99 0.48 95 1004.4
20260503211207 15 309 3.2 6.4 0.00 0.99 0.48 95 1004.4
20260503210907 15 311 3.2 3.2 0.00 0.99 0.48 95 1004.5
20260503210607 15 321 3.2 6.4 0.00 0.99 0.48 95 1004.5
20260503205707 15 317 3.2 6.4 0.00 0.99 0.48 95 1004.3
20260503205407 15 327 1.6 6.4 0.00 0.99 0.48 94 1004.4
20260503204808 15 313 1.6 9.7 0.00 0.99 0.48 94 1004.0
20260503204507 15 309 0.0 9.7 0.00 0.99 0.48 94 1004.0
20260503204207 15 296 3.2 6.4 0.00 0.99 0.48 95 1004.2
20260503203907 15 297 3.2 6.4 0.00 0.99 0.48 95 1004.4
20260503203607 15 297 1.6 11.3 0.00 0.99 0.48 95 1004.2
20260503203308 15 314 3.2 11.3 0.00 0.99 0.48 95 1004.4
20260503202707 15 241 3.2 11.3 0.00 0.99 0.48 95 1003.9
20260503202407 15 209 3.2 9.7 0.00 0.99 0.48 95 1004.2
20260503202108 15 187 6.4 9.7 0.00 0.99 0.48 94 1004.3
20260503201507 15 174 3.2 6.4 0.00 0.99 0.48 94 1004.2
20260503201207 15 174 3.2 6.4 0.00 0.99 0.48 94 1004.3
20260503200908 15 162 3.2 11.3 0.00 0.99 0.48 94 1004.3
20260503200607 15 158 3.2 11.3 0.00 0.99 0.48 93 1004.0
20260503200307 15 153 3.2 11.3 0.03 0.99 0.48 93 1004.3
20260503200008 16 153 4.8 11.3 0.03 0.99 0.48 92 1004.0
20260503195707 16 167 4.8 11.3 0.03 0.99 0.48 92 1003.8
20260503195407 16 157 4.8 9.7 0.03 0.99 0.48 92 1003.9
20260503195108 16 195 3.2 9.7 0.03 0.99 0.48 91 1003.5
20260503194807 16 255 6.4 9.7 0.03 0.99 0.48 91 1003.4
20260503194208 16 274 3.2 11.3 0.05 0.99 0.48 91 1003.1
20260503193907 16 245 3.2 11.3 0.05 0.99 0.48 91 1003.2
20260503193307 16 241 6.4 9.7 0.10 0.99 0.48 92 1003.3
20260503193007 15 338 3.2 6.4 0.13 0.99 0.48 92 1002.9
20260503192707 15 330 1.6 3.2 0.13 0.99 0.48 93 1003.0
20260503192407 15 323 0.0 3.2 0.15 0.99 0.48 93 1002.6
20260503192107 15 331 3.2 3.2 0.15 0.99 0.48 93 1002.7
20260503191807 16 333 3.2 3.2 0.15 0.99 0.48 93 1002.9
20260503191507 16 337 0.0 3.2 0.15 0.99 0.48 92 1002.5
20260503190908 16 314 0.0 6.4 0.15 0.99 0.48 92 1002.4
20260503190607 16 312 1.6 6.4 0.15 0.99 0.48 92 1002.1
20260503190307 16 245 0.0 9.7 0.13 0.97 0.46 92 1002.2
20260503190007 16 183 0.0 12.9 0.13 0.97 0.46 92 1002.0
20260503185707 16 164 1.6 17.7 0.13 0.97 0.46 92 1002.1
20260503185407 16 151 4.8 17.7 0.13 0.97 0.46 91 1001.8
20260503185108 16 152 8.0 17.7 0.13 0.97 0.46 90 1001.9
20260503184807 16 157 8.0 17.7 0.13 0.97 0.46 90 1002.0
20260503184507 16 140 12.9 17.7 0.15 0.97 0.46 91 1002.2
20260503184207 16 144 11.3 17.7 0.13 0.94 0.43 92 1002.0
20260503183907 16 145 8.0 17.7 0.13 0.94 0.43 91 1001.9
20260503183607 16 159 6.4 17.7 0.13 0.89 0.38 92 1002.0
20260503183307 16 159 8.0 17.7 0.15 0.89 0.38 91 1002.1
20260503183007 16 154 9.7 17.7 0.13 0.86 0.36 92 1001.9
20260503182707 16 159 9.7 14.5 0.15 0.86 0.36 92 1002.0
20260503182408 16 153 11.3 14.5 0.15 0.84 0.33 92 1002.0
20260503181807 16 163 8.0 14.5 0.18 0.84 0.33 93 1001.8
20260503181507 16 163 6.4 17.7 0.18 0.84 0.33 93 1001.9
20260503181208 16 162 6.4 17.7 0.20 0.84 0.33 94 1001.6
20260503180607 16 167 9.7 20.9 0.20 0.84 0.33 95 1001.7
20260503180007 16 183 6.4 20.9 0.20 0.84 0.33 96 1001.4
20260503175707 16 184 6.4 17.7 0.23 0.84 0.33 96 1001.4
20260503175407 16 197 9.7 17.7 0.23 0.84 0.33 96 1001.5
20260503175108 16 196 8.0 17.7 0.23 0.84 0.33 97 1001.4
20260503174807 16 194 6.4 20.9 0.20 0.81 0.30 97 1001.4
20260503174507 16 187 6.4 20.9 0.20 0.81 0.30 97 1001.3
20260503174208 16 176 8.0 20.9 0.23 0.81 0.30 97 1001.3
20260503173907 16 176 6.4 17.7 0.20 0.79 0.28 97 1001.2
20260503173007 16 198 6.4 17.7 0.18 0.76 0.23 97 1001.0
20260503172707 17 237 3.2 6.4 0.15 0.71 0.20 96 1001.2
20260503172407 17 229 3.2 6.4 0.13 0.69 0.18 96 1001.0
20260503172107 16 181 1.6 3.2 0.10 0.66 0.15 96 1001.1
20260503171808 16 0 0.0 0.0 0.10 0.66 0.15 96 1001.3
20260503171507 16 0 0.0 0.0 0.10 0.66 0.15 96 1001.3
20260503170907 16 342 0.0 3.2 0.05 0.64 0.13 95 1001.3
20260503170607 16 342 0.0 3.2 0.05 0.64 0.13 95 1001.2
20260503170307 17 337 0.0 3.2 0.05 0.64 0.13 95 1001.1